This demonstration page uses our WeatherBlox Daily Observations layout. Learn more.

Left ArrowRight Arrow

Hourly Observations for May 27, 2021

Temp ( °F °C ) Dew Point ( °F °C ) Humidity (%) Winds ( mph kmh ) Pressure ( in mb ) Visibility ( mi km ) Precip ( " mm )
12:15 am 00:15 Cloudy with Heavy Rain 61 16.3 58 14.7 90 90 NNE 8 13 29.99 1016 5 8 0.08 2.03
12:35 am 00:35 Cloudy with Light Rain 61 16 59 14.8 93 93 E 25 41 29.88 1012 10 16 0.13 3.30
12:55 am 00:55 Partly Cloudy 60 15.8 58 14.7 93 93 E 24 39 29.82 1010 10 16 0.13 3.30
1:15 am 01:15 Clear 61 16 58 14.6 91 91 E 22 35 29.80 1009 10 16 N/A
1:35 am 01:35 Partly Cloudy 61 16 58 14.5 91 91 E 13 20 29.84 1011 10 16 N/A
1:55 am 01:55 Mostly Cloudy 61 16 58 14.7 92 92 SE 10 17 29.88 1012 10 16 N/A
2:15 am 02:15 Cloudy with Heavy Rain 61 16 59 14.8 93 93 E 5 7 29.89 1012 7 11 0.07 1.78
2:35 am 02:35 Cloudy with Light Rain 61 16 59 15 94 94 NW 7 11 29.94 1014 10 16 0.11 2.79
2:55 am 02:55 Cloudy with Rain 61 16 59 15 94 94 S 7 11 29.92 1013 10 16 0.14 3.56
3:15 am 03:15 Mostly Cloudy with Light Rain 60 15.8 59 15 95 95 E 15 24 29.81 1010 7 11 0.03 0.76
3:35 am 03:35 Mostly Cloudy 61 16 59 15.1 94 94 SE 12 19 29.83 1010 10 16 0.04 1.02
3:55 am 03:55 Partly Cloudy 60 15.6 59 15 96 96 SSE 10 17 29.81 1010 10 16 0.04 1.02
4:15 am 04:15 Clear 59 15 57 14.1 94 94 SSE 9 15 29.82 1010 10 16 N/A
4:35 am 04:35 Clear 58 14.7 55 13 90 90 S 9 15 29.83 1010 10 16 N/A
4:55 am 04:55 Clear 58 14.6 55 13 90 90 WNW 8 13 29.84 1011 10 16 N/A
5:15 am 05:15 Clear 58 14.6 56 13.1 91 91 WNW 6 9 29.85 1011 10 16 N/A
5:35 am 05:35 Clear 58 14.7 56 13.3 91 91 W 7 11 29.85 1011 10 16 N/A
5:55 am 05:55 Clear 59 14.9 56 13.3 90 90 WNW 6 9 29.86 1011 10 16 N/A
6:15 am 06:15 Sunny 59 15 57 13.7 92 92 NW 7 11 29.87 1011 10 16 N/A
6:35 am 06:35 Sunny 60 15.5 58 14.5 94 94 NNW 8 13 29.88 1012 10 16 N/A
6:55 am 06:55 Sunny 60 15.5 58 14.5 94 94 NNW 7 11 29.89 1012 10 16 N/A
7:15 am 07:15 Sunny 60 15.5 58 14.5 94 94 NW 9 15 29.92 1013 10 16 N/A
7:35 am 07:35 Partly Cloudy 60 15.5 58 14.5 94 94 NNW 9 15 29.93 1013 10 16 N/A
7:55 am 07:55 Partly Cloudy 60 15.6 58 14.3 92 92 NNW 6 9 29.93 1014 10 16 N/A
8:15 am 08:15 Cloudy 60 15.8 58 14.3 91 91 N 12 19 29.93 1014 10 16 N/A
8:35 am 08:35 Cloudy 60 15.7 57 14.1 90 90 NNW 14 22 29.93 1014 10 16 N/A
8:55 am 08:55 Cloudy 60 15.5 56 13.6 89 89 N 12 19 29.94 1014 10 16 N/A
9:15 am 09:15 Cloudy 59 14.9 55 13 89 89 N 16 26 29.96 1015 10 16 N/A
9:35 am 09:35 Cloudy 58 14.3 53 11.7 85 85 NNW 18 30 29.98 1015 10 16 N/A
9:55 am 09:55 Cloudy 58 14.2 53 11.8 86 86 N 17 28 29.99 1015 10 16 N/A
10:15 am 10:15 Cloudy 58 14.4 53 11.7 84 84 N 14 22 29.98 1015 10 16 N/A
10:35 am 10:35 Cloudy 58 14.7 53 11.7 82 82 N 16 26 29.99 1016 10 16 N/A
10:55 am 10:55 Mostly Cloudy 60 15.7 53 11.4 76 76 N 18 30 29.98 1015 10 16 N/A
11:15 am 11:15 Partly Cloudy 61 16 53 11.5 75 75 N 18 30 29.98 1015 10 16 N/A
11:35 am 11:35 Mostly Cloudy 61 16 53 11.6 75 75 N 18 30 29.99 1016 10 16 N/A
11:55 am 11:55 Cloudy 61 15.9 53 11.4 75 75 N 17 28 29.99 1016 10 16 N/A
12:15 pm 12:15 Cloudy 60 15.7 52 11.3 75 75 N 18 30 30.00 1016 10 16 N/A
12:35 pm 12:35 Cloudy 61 16.1 52 11.2 73 73 N 21 33 30.00 1016 10 16 N/A
12:55 pm 12:55 Cloudy 61 16.1 52 11.3 73 73 N 17 28 30.00 1016 10 16 N/A
1:15 pm 13:15 Cloudy 60 15.7 52 11.3 75 75 NNW 17 28 30.01 1016 10 16 N/A
1:35 pm 13:35 Cloudy 61 15.9 51 10.8 72 72 NNW 17 28 30.01 1016 10 16 N/A
1:55 pm 13:55 Mostly Cloudy 61 16.3 51 10.8 70 70 N 18 30 30.00 1016 10 16 N/A
2:15 pm 14:15 Mostly Cloudy 61 16.2 51 10.5 69 69 N 20 31 30.00 1016 10 16 N/A
2:35 pm 14:35 Mostly Cloudy 63 17.1 52 11.2 68 68 NNW 14 22 29.98 1015 10 16 N/A
2:55 pm 14:55 Partly Cloudy 64 17.7 52 10.9 65 65 N 21 33 29.97 1015 10 16 N/A
3:15 pm 15:15 Sunny 64 17.9 51 10.6 63 63 NNW 21 33 29.96 1015 10 16 N/A
3:35 pm 15:35 Partly Cloudy 64 17.9 52 10.9 64 64 N 16 26 29.97 1015 10 16 N/A
3:55 pm 15:55 Partly Cloudy 64 17.9 50 9.8 59 59 NNW 20 31 29.97 1015 10 16 N/A
4:15 pm 16:15 Sunny 65 18.2 50 10 59 59 N 21 33 29.95 1014 10 16 N/A
4:35 pm 16:35 Sunny 65 18.1 49 9.4 57 57 N 18 30 29.95 1014 10 16 N/A
4:55 pm 16:55 Sunny 64 18 48 8.9 55 55 N 22 35 29.95 1014 10 16 N/A
5:15 pm 17:15 Sunny 64 18 48 8.8 55 55 N 23 37 29.97 1015 10 16 N/A
5:35 pm 17:35 Sunny 64 17.8 47 8.6 55 55 N 21 33 29.98 1015 10 16 N/A
5:55 pm 17:55 Sunny 64 17.8 47 8.5 55 55 N 17 28 29.98 1015 10 16 N/A
6:15 pm 18:15 Sunny 64 17.9 46 7.9 52 52 N 14 22 29.97 1015 10 16 N/A
6:35 pm 18:35 Sunny 64 17.6 46 7.5 52 52 N 18 30 29.99 1015 10 16 N/A
6:55 pm 18:55 Sunny 63 17.3 47 8.4 56 56 N 15 24 29.99 1016 10 16 N/A
7:15 pm 19:15 Sunny 63 17 46 7.8 55 55 N 20 31 29.99 1016 10 16 N/A
7:35 pm 19:35 Sunny 62 16.6 45 7 53 53 N 15 24 30.00 1016 10 16 N/A
7:55 pm 19:55 Sunny 61 16.1 47 8.4 61 61 N 14 22 30.01 1016 10 16 N/A
8:15 pm 20:15 Sunny 59 15.2 48 8.9 66 66 NNE 17 28 30.02 1017 10 16 N/A
8:35 pm 20:35 Sunny 57 14 47 8.4 69 69 N 16 26 30.04 1017 10 16 N/A
8:55 pm 20:55 Sunny 56 13.1 46 7.8 70 70 N 14 22 30.05 1017 10 16 N/A
9:15 pm 21:15 Clear 54 12.3 47 8.1 76 76 NNE 14 22 30.05 1018 10 16 N/A
9:35 pm 21:35 Clear 53 11.6 46 7.8 78 78 NNE 10 17 30.08 1019 10 16 N/A
9:55 pm 21:55 Clear 52 11 46 8 82 82 NNE 10 17 30.09 1019 10 16 N/A
10:15 pm 22:15 Clear 51 10.5 46 7.7 83 83 N 7 11 30.11 1020 10 16 N/A
10:35 pm 22:35 Clear 50 10.2 46 7.5 84 84 N 8 13 30.12 1020 10 16 N/A
10:55 pm 22:55 Clear 50 10.1 45 7.3 83 83 N 8 13 30.13 1020 10 16 N/A
11:15 pm 23:15 Clear 50 9.8 45 7.2 84 84 N 9 15 30.13 1020 10 16 N/A
11:35 pm 23:35 Clear 50 9.8 45 7 83 83 N 12 19 30.13 1020 10 16 N/A
11:55 pm 23:55 Clear 49 9.5 44 6.9 84 84 N 8 13 30.14 1021 10 16 N/A

Powered by AerisWeather